Погода в Богуславце

Россия / Приморский край     45°53′44″N   134°51′22″E
темп.,
°C
ветер,
м/с
пор.,
м/с
влажн.,
%
обл.,
%
осадки,
мм/ч
давл.,
гПа
погр.,
м
2 декабря, чт
чт201:00−15зсз61382100 0.2 1002987
04:00−15зсз5138098 0.2 10031012
07:00−17зюз39875 0.0 1006379
10:00−15юз38875 0.0 1007324
13:00−9юз368097 0.0 1005699
16:00−8ю3992100 0.1 1003638
19:00−7ю41295100 0.8 1002679
22:00−4ююз51391100 2.9 10011040
3 декабря, пт
пт301:00−3юз41096100 1.9 1001924
04:00−4юз3997100 2.8 1002706
07:00−5юз3995100 0.6 1004540
10:00−9зюз4795100 1.3 1008387
13:00−11зюз3591100 0.8 1011495
16:00−11з4687100 1.1 1013729
19:00−20ю1110076 0.0 10169
22:00−21вюв11100100 0.0 10179
4 декабря, сб
сб401:00−19в00100100 0.1 101712
04:00−22юв00100100 0.1 10189
07:00−25ююз11100100 0.0 10209
10:00−21зюз129989 0.1 1022126
13:00−17зюз3486100 0.0 1022532
16:00−16з2486100 0.1 1024653
19:00−23ю1110081 0.0 10279
22:00−27юв111008 0.0 10299
5 декабря, вс
вс501:00−28вюв1110012 0.0 10309
04:00−28вюв11998 0.0 103112
07:00−27вюв219813 0.0 103218
10:00−19юв238691 0.0 1031114
13:00−11юв24755 0.0 1028360
16:00−8вюв24835 0.0 1026296
19:00−15вюв21965 0.0 102612
22:00−16вюв21965 0.0 102518
6 декабря, пн
пн601:00−17вюв21965 0.0 102417
04:00−16вюв21955 0.0 102317
07:00−15вюв21967 0.0 102214
10:00−8ююв1391100 0.0 102265
13:00+1юз31190100 0.0 10201002
16:000зюз41086100 0.0 1021808
19:00−7ююз119836 0.0 102311
22:00−11ююз1110091 0.0 102616